TimeEDT,TemperatureF,Dew PointF,Humidity,Sea Level PressureIn,VisibilityMPH,Wind Direction,Wind SpeedMPH,Gust SpeedMPH,PrecipitationIn,Events,Conditions,WindDirDegrees,DateUTC
12:18 AM,37.4,35.6,93,30.32,2.0,Calm,Calm,-,N/A,,Partly Cloudy,0,2013-09-18 04:18:00
12:30 AM,37.4,35.6,93,30.33,10.0,Calm,Calm,-,N/A,,Clear,0,2013-09-18 04:30:00
12:52 AM,37.0,34.0,89,30.35,10.0,Calm,Calm,-,N/A,,Clear,0,2013-09-18 04:52:00
1:52 AM,36.0,33.1,89,30.34,7.0,Calm,Calm,-,N/A,,Clear,0,2013-09-18 05:52:00
2:20 AM,35.6,32.0,87,30.31,10.0,Calm,Calm,-,N/A,,Partly Cloudy,0,2013-09-18 06:20:00
2:52 AM,35.1,32.0,89,30.33,10.0,Calm,Calm,-,N/A,,Clear,0,2013-09-18 06:52:00
3:10 AM,35.6,32.0,87,30.31,9.0,Calm,Calm,-,N/A,,Partly Cloudy,0,2013-09-18 07:10:00
3:52 AM,34.0,30.9,89,30.33,10.0,Calm,Calm,-,N/A,,Clear,0,2013-09-18 07:52:00
4:22 AM,33.8,30.2,87,30.31,10.0,Calm,Calm,-,N/A,,Partly Cloudy,0,2013-09-18 08:22:00
4:52 AM,33.1,30.0,89,30.34,10.0,Calm,Calm,-,N/A,,Partly Cloudy,0,2013-09-18 08:52:00
5:02 AM,33.8,30.2,87,30.31,1.5,Calm,Calm,-,N/A,,Partly Cloudy,0,2013-09-18 09:02:00
5:14 AM,33.8,30.2,87,30.31,3.0,Calm,Calm,-,N/A,,Partly Cloudy,0,2013-09-18 09:14:00
5:35 AM,33.8,30.2,87,30.31,1.5,Calm,Calm,-,0.01,,Partly Cloudy,0,2013-09-18 09:35:00
5:37 AM,33.8,30.2,87,30.31,0.8,Calm,Calm,-,0.01,,Mist,0,2013-09-18 09:37:00
5:47 AM,32.0,30.2,93,30.31,1.5,Calm,Calm,-,0.01,,Mostly Cloudy,0,2013-09-18 09:47:00
5:49 AM,32.0,30.2,93,30.31,5.0,Calm,Calm,-,0.01,,Mostly Cloudy,0,2013-09-18 09:49:00
5:52 AM,32.0,30.0,92,30.34,10.0,Calm,Calm,-,0.01,,Mostly Cloudy,0,2013-09-18 09:52:00
6:13 AM,32.0,30.2,93,30.31,1.5,Calm,Calm,-,N/A,,Mostly Cloudy,0,2013-09-18 10:13:00
6:23 AM,32.0,30.2,93,30.31,4.0,Calm,Calm,-,N/A,,Mostly Cloudy,0,2013-09-18 10:23:00
6:30 AM,32.0,30.2,93,30.31,10.0,Calm,Calm,-,N/A,,Partly Cloudy,0,2013-09-18 10:30:00
6:52 AM,33.1,30.0,89,30.35,10.0,Calm,Calm,-,N/A,,Clear,0,2013-09-18 10:52:00
7:26 AM,35.6,32.0,87,30.31,10.0,Calm,Calm,-,N/A,,Scattered Clouds,0,2013-09-18 11:26:00
7:32 AM,35.6,32.0,87,30.31,2.5,Calm,Calm,-,N/A,,Mostly Cloudy,0,2013-09-18 11:32:00
7:43 AM,37.4,33.8,87,30.31,9.0,Calm,Calm,-,N/A,,Scattered Clouds,0,2013-09-18 11:43:00
7:52 AM,37.9,34.0,86,30.34,10.0,Calm,Calm,-,N/A,,Scattered Clouds,0,2013-09-18 11:52:00
8:52 AM,46.0,41.0,83,30.33,10.0,Calm,Calm,-,N/A,,Clear,0,2013-09-18 12:52:00
9:52 AM,54.0,42.1,64,30.32,10.0,Calm,Calm,-,N/A,,Clear,0,2013-09-18 13:52:00
10:52 AM,60.1,45.0,57,30.30,10.0,Calm,Calm,-,N/A,,Clear,0,2013-09-18 14:52:00
11:52 AM,63.0,41.0,45,30.27,10.0,Calm,Calm,-,N/A,,Clear,0,2013-09-18 15:52:00
12:52 PM,64.9,39.9,40,30.25,10.0,WSW,6.9,-,N/A,,Clear,250,2013-09-18 16:52:00
1:52 PM,66.0,41.0,40,30.22,10.0,Variable,4.6,-,N/A,,Clear,0,2013-09-18 17:52:00
2:52 PM,68.0,41.0,37,30.20,10.0,Variable,3.5,-,N/A,,Clear,0,2013-09-18 18:52:00
3:52 PM,68.0,39.9,36,30.18,10.0,Variable,3.5,-,N/A,,Clear,0,2013-09-18 19:52:00
4:52 PM,68.0,42.1,39,30.16,10.0,SW,4.6,-,N/A,,Clear,230,2013-09-18 20:52:00
5:52 PM,66.9,44.1,44,30.16,10.0,Calm,Calm,-,N/A,,Clear,0,2013-09-18 21:52:00
6:52 PM,55.9,48.9,77,30.17,10.0,Calm,Calm,-,N/A,,Clear,0,2013-09-18 22:52:00
7:52 PM,51.1,46.9,86,30.17,10.0,Calm,Calm,-,N/A,,Clear,0,2013-09-18 23:52:00
8:52 PM,46.9,44.1,90,30.17,10.0,Calm,Calm,-,N/A,,Clear,0,2013-09-19 00:52:00
9:52 PM,45.0,41.0,86,30.17,10.0,Calm,Calm,-,N/A,,Clear,0,2013-09-19 01:52:00
10:52 PM,43.0,39.9,89,30.17,10.0,Calm,Calm,-,N/A,,Clear,0,2013-09-19 02:52:00
11:52 PM,42.1,37.9,85,30.17,10.0,Calm,Calm,-,N/A,,Clear,0,2013-09-19 03:52:00